DECAYED

STARLINK-11121, 59946 (Decayed)

Orbit data source: Space-Track

STARLINK-11121, 59946 was a payload satellite owned by SpaceX/Seattle (US) in LEO that was launched on Wed, 05 Jun 2024 UTC via an FALCON 9 launch vehicle from the Air Force Eastern Test Range (AFETR). Payload-class satellites include a variety of spacecraft equipped with specific instruments for various scientific and technological missions. These include communications satellites like Starlink; space stations such as the ISS; scientific satellites like the Hubble; Earth observation satellites from companies like Planet Labs, Umbra, and HawkEye 360; GPS; miniature CubeSats for education and research; and military/defense satellites.

Not visible in the next 10 days
Identifier
59946, 2024-107B
Orbit
Decayed
Country
Flag of USUS
Related business
Manufacturer
SpaceX/Seattle
Mission
Decayed spacecraft
Bus & Motor
STARLINK V2MD, Unknown motor
Mass
960 kg wet, ~910 kg dry
Launch date (UTC)
2024-06-05 (1 year ago)
Launch vehicle
FALCON 9
Launch site
Air Force Eastern Test Range (AFETR)
Object type
Payload
Rocket body
Debris
Shape & HBR
Unknown
Radar Cross Section
Large (>1 m²)

Expand to show TLE details & history
Last TLE update: 6 months ago

TLE from 6 months ago
0 STARLINK-11121
1 59946U 24107B   25092.56929212  .42396816  12306-4  43618-2 0  9990
2 59946  53.1410 122.6586 0002637 326.4675 187.6616 16.37082135 48777
Epoch: 2025-04-02T13:39Z
TLE epoch observation values (Epoch: 2025-04-02T13:39:46.839Z)
Latitude
20.48397°
Longitude
-109.60906°
Altitude
175.819 km
Speed
7.803 km/s
True Right ascension
19h 05m 57s
True Declination
20° 21' 41"
Sunlit
Object was in daylight at epoch
Visualization orbit readout
Latitude
Unknown
Longitude
Unknown
Altitude
Unknown
Speed
Unknown
Apparent Right ascension
Unknown
Apparent Declination
Unknown
Sunlit
N/A
Visualization observer readout
Local Sidereal Time
13:52:14
Azimuth
Unknown
Elevation
Unknown
Doppler factor
Unknown
Orbital elements
Apogee altitude
175.575 km
Perigee altitude
172.119 km
Semi-major axis
6,551.984 km
Eccentricity
0.00026
Inclination
53.141°
RAAN
122.6586°
Arg. of periapsis
326.4675°
True anomaly
187.65757°
Mean anomaly
187.6616°
Eccentric anomaly
187.65959°
Mean motion
4.09246 °/min
Orbital period
87.97 mins
BSTAR
0.0043618
Loading maneuver chart data...
Computing Atmospheric mass density...
Loading historical data...
Loading historical data...
Loading historical data...
Loading historical data...
Loading historical data...
Loading historical data...
Loading historical data...

Documentation

Showing up to 5 results
|